Location: Eboldshausen
(51.7766°N, 10.0050°E)
Time: 02:18:38
(UTC+00:00)

SL-08 R/B - Pass Details

Date: 15 November 2025
Orbit: 943 x 1007 km, 83.0° (Epoch: 13 December)

Event Time Altitude Azimuth Distance (km) Brightness Sun altitude
Rises 16:32:18 0° 183° (S) 3,613 7.8 -9.7°
Reaches altitude 10° 16:34:47 10° 182° (S) 2,666 7.1 -10.1°
Maximum altitude 16:40:52 80° 98° (E) 966 4.4 -11.0°
Drops below altitude 10° 16:46:58 10° 12° (NNE) 2,674 6.5 -11.9°
Sets 16:49:28 0° 11° (NNE) 3,625 7.2 -12.3°
